Weather History for KSDM - October, 2013

Change the Weather History Date:

Monday, October 7, 2013

  Actual Average Record
Temperature  
Mean Temperature 70 °F -  
Max Temperature 84 °F 74 °F 96 °F (2008)
Min Temperature 57 °F 54 °F 48 °F (2007)
Cooling Degree Days 4    
Growing Degree Days 20 (Base 50)    
Moisture  
Dew Point 46 °F    
Average Humidity 60    
Maximum Humidity 100    
Minimum Humidity 8    
Precipitation  
Precipitation 0.00 in - - ()
Sea Level Pressure  
Sea Level Pressure 29.95 in    
Wind  
Wind Speed 3 mph (WSW)    
Max Wind Speed 14 mph    
Max Gust Speed -    
Visibility 8 miles    
Events Fog    
Averages and records for this station are not official NWS values.
T = Trace of Precipitation, MM = Missing Value Source: NWS Daily Summary

Daily Weather History Graph

Daily Weather History Graph

Search for Another Location

Airport or City:

Trip Planner

Search our weather history database for the weather conditions in past years. The results will help you decide how hot, cold, wet, or windy it might be!

Date:

Astronomy

Oct. 07, 2013 Rise Set
Actual Time 6:46 AM PDT 6:24 PM PDT
Civil Twilight 6:21 AM PDT 6:49 PM PDT
Nautical Twilight 5:53 AM PDT 7:17 PM PDT
Astronomical Twilight 5:24 AM PDT 7:45 PM PDT
Moon 9:30 AM PDT (10/7) 8:24 PM PDT (10/7)
Length of Visible Light 12h 27m
Length of Day
11h 38m
Waxing Crescent, 9% of the Moon is Illuminated
Oct 7
Waxing Crescent
Oct 11
First Quarter
Oct 18
Full
Oct 26
Last Quarter
Nov 3
New

Hourly Weather History & Observations

Time (PDT) Temp. Dew Point Humidity Pressure Visibility Wind Dir Wind Speed Gust Speed Precip Events Conditions
12:53 AM 66.0 °F 37.9 °F 36% 29.96 in 10.0 mi Calm Calm - N/A   Clear
1:53 AM 63.0 °F 37.0 °F 38% 29.94 in 9.0 mi SE 3.5 mph - N/A   Clear
2:53 AM 64.0 °F 37.9 °F 38% 29.93 in 10.0 mi Calm Calm - N/A   Clear
3:53 AM 60.1 °F 28.0 °F 30% 29.93 in 10.0 mi ENE 3.5 mph - N/A   Clear
4:53 AM 59.0 °F 30.0 °F 33% 29.93 in 10.0 mi ESE 3.5 mph - N/A   Clear
5:53 AM 57.9 °F 28.9 °F 33% 29.94 in 10.0 mi SSE 3.5 mph - N/A   Clear
6:53 AM 57.9 °F 26.1 °F 30% 29.95 in 10.0 mi ESE 5.8 mph - N/A   Clear
7:53 AM 61.0 °F 24.1 °F 24% 29.97 in 6.0 mi Calm Calm - N/A   Haze
8:53 AM 73.0 °F 18.0 °F 12% 29.98 in 10.0 mi SE 3.5 mph - N/A   Clear
9:53 AM 77.0 °F 17.1 °F 10% 29.97 in 9.0 mi SE 3.5 mph - N/A   Clear
10:53 AM 82.9 °F 16.0 °F 8% 29.95 in 10.0 mi South 3.5 mph - N/A   Clear
11:53 AM 77.0 °F 54.0 °F 45% 29.95 in 10.0 mi WNW 6.9 mph - N/A   Clear
12:53 PM 75.9 °F 54.0 °F 46% 29.95 in 10.0 mi West 13.8 mph - N/A   Clear
1:53 PM 77.0 °F 57.0 °F 50% 29.93 in 10.0 mi West 11.5 mph - N/A   Clear
2:53 PM 75.9 °F 53.1 °F 45% 29.92 in 10.0 mi West 6.9 mph - N/A   Clear
3:53 PM 75.0 °F 51.1 °F 43% 29.92 in 10.0 mi WNW 4.6 mph - N/A   Clear
4:53 PM 73.9 °F 53.1 °F 48% 29.92 in 10.0 mi West 6.9 mph - N/A   Clear
5:53 PM 69.1 °F 57.9 °F 68% 29.93 in 10.0 mi West 4.6 mph - N/A   Clear
6:53 PM 64.9 °F 60.1 °F 84% 29.93 in 10.0 mi WNW 3.5 mph - N/A   Clear
7:53 PM 63.0 °F 59.0 °F 87% 29.94 in 10.0 mi Calm Calm - N/A   Clear
8:53 PM 62.1 °F 59.0 °F 90% 29.94 in 9.0 mi Calm Calm - N/A   Clear
9:53 PM 60.1 °F 59.0 °F 96% 29.95 in 7.0 mi Calm Calm - N/A   Clear
10:03 PM 60.8 °F 57.2 °F 88% 29.96 in 2.5 mi West 3.5 mph - N/A   Clear
10:11 PM 60.8 °F 59.0 °F 94% 29.96 in 7.0 mi West 3.5 mph - N/A   Clear
10:53 PM 61.0 °F 60.1 °F 97% 29.95 in 7.0 mi Calm Calm - N/A   Clear
11:03 PM 57.2 °F 57.2 °F 100% 29.96 in 1.5 mi Calm Calm - N/A   Clear
11:11 PM 57.2 °F 57.2 °F 100% 29.96 in 0.5 mi Calm Calm - N/A Fog Fog
11:25 PM 59.0 °F 57.2 °F 94% 29.96 in 2.5 mi Calm Calm - N/A   Clear
11:32 PM 59.0 °F 57.2 °F 94% 29.96 in 5.0 mi Calm Calm - N/A   Clear
11:46 PM 59.0 °F 59.0 °F 100% 29.95 in 7.0 mi Calm Calm - N/A   Scattered Clouds
11:53 PM 59.0 °F 59.0 °F 100% 29.94 in 8.0 mi Calm Calm - N/A   Mostly Cloudy